Theta_e
270 269 269 268 268 268 268 268 268 269 269 268 267 267 267 267 267 267 267 266 266 266 266 266 266 266 265 265 265 265 265 265 265 265 265 265 265 265 266 266 265 265 266 266 267 267 266 266 267 267 268 267 267 268 268 269 270 271 271 271 272 273 273 272 271 271 274 277 276 276 278 278 277 278 278 278 279 279 281 280 280 280 280 280 280
270 269 269 268 268 268 268 268 268 269 268 268 267 267 267 266 266 266 266 266 266 265 265 265 265 265 265 265 265 265 265 265 265 265 265 264 264 265 265 265 264 265 265 265 265 266 266 265 265 266 267 266 266 266 267 268 268 269 270 270 270 271 273 272 271 271 270 274 275 277 277 278 276 278 277 277 277 279 279 279 280 280 280 280 280
270 269 268 268 267 268 268 267 268 268 267 267 267 266 266 266 266 265 265 265 266 265 265 265 264 265 264 264 264 264 264 264 265 264 264 264 264 264 264 264 264 264 264 264 264 265 264 264 264 265 265 265 265 266 266 266 267 267 267 268 269 270 271 272 271 270 270 272 274 274 275 276 275 275 277 277 278 278 278 278 278 279 280 280 279
269 269 268 267 267 267 267 267 267 267 267 267 267 266 266 266 266 265 265 265 264 265 265 264 264 264 263 264 264 264 264 264 264 264 264 264 263 263 264 264 264 264 263 263 263 263 263 263 263 264 264 264 264 265 265 266 266 266 267 268 268 268 269 270 271 270 270 269 272 273 274 274 274 276 276 277 276 276 277 277 278 278 279 279 279
269 268 268 267 267 267 266 267 266 266 266 266 266 266 266 265 265 265 264 264 264 264 264 264 264 263 263 263 263 263 263 263 263 263 263 263 263 263 263 263 263 263 263 263 264 263 263 262 263 263 264 263 264 264 265 265 265 266 266 267 267 268 268 269 269 270 269 269 270 272 273 273 274 275 275 274 275 276 277 277 277 278 278 278 279
269 268 267 266 266 266 266 266 266 266 266 266 266 265 265 265 264 264 264 263 263 264 263 263 263 263 263 263 263 263 263 263 262 262 262 263 263 263 262 263 263 262 262 263 263 263 262 262 263 263 263 263 263 264 264 264 265 265 265 266 266 267 267 268 269 268 269 269 269 269 271 271 272 273 274 275 274 273 274 276 277 277 277 277 278
268 267 267 266 266 266 266 266 266 265 265 265 265 265 264 264 264 263 263 263 263 262 263 262 263 263 263 263 262 262 262 262 262 262 262 262 262 261 261 262 262 262 262 262 262 263 263 263 263 264 263 264 263 263 264 264 265 265 265 265 266 266 266 266 267 267 268 268 268 270 270 271 272 271 273 274 274 274 273 273 274 277 277 276 276
267 267 266 265 265 265 265 265 265 265 265 265 265 264 264 263 263 263 263 262 262 262 262 262 262 262 262 262 261 262 261 261 261 261 261 261 260 260 260 260 260 261 261 262 262 263 263 263 264 264 264 264 264 264 264 264 265 265 266 266 266 266 266 266 266 266 266 267 267 268 269 270 271 272 273 273 272 272 273 273 272 274 275 276 276
266 266 265 265 265 265 265 265 265 265 265 264 264 263 263 263 262 262 262 262 262 262 261 261 261 260 261 260 260 261 260 260 260 260 259 259 259 259 260 260 260 260 261 262 262 263 263 264 264 264 265 266 267 267 267 267 265 265 266 267 266 266 266 266 266 266 266 266 266 268 268 269 270 270 270 270 270 270 273 274 273 274 275 275 276
266 265 265 264 265 265 265 264 264 264 264 263 263 263 262 262 261 261 261 261 260 260 260 260 259 259 259 259 259 259 258 259 260 262 264 261 261 261 261 261 261 261 261 261 262 263 263 264 265 266 267 267 267 268 268 269 269 268 267 267 267 267 266 266 266 266 266 266 266 267 266 267 268 269 269 270 271 272 272 273 272 274 275 274 275
265 264 264 264 264 264 264 264 264 263 263 262 262 261 261 261 260 260 260 259 259 259 259 259 258 259 258 258 257 258 258 258 262 265 266 265 262 263 263 263 263 263 263 263 263 264 264 265 266 267 268 268 268 269 269 269 270 270 270 270 270 268 267 266 266 267 266 266 266 267 266 267 268 270 270 271 272 271 272 273 273 273 272 271 269
264 264 264 264 264 264 263 263 263 262 262 261 261 261 261 260 259 259 259 258 259 259 258 258 258 257 257 257 257 257 257 260 264 265 267 264 265 263 263 263 263 263 263 264 264 264 264 265 266 267 267 267 267 267 268 269 270 270 270 271 272 273 273 269 267 267 267 266 266 266 267 267 268 269 270 271 270 271 272 273 273 272 272 271 271
264 264 263 263 263 263 263 262 262 262 261 261 261 260 259 259 258 258 257 258 258 257 257 257 257 257 257 256 256 257 256 261 264 265 266 263 266 264 263 263 263 263 263 264 264 264 265 265 265 266 267 268 268 268 268 268 269 270 270 270 270 272 273 274 273 270 269 268 267 267 268 268 268 269 271 271 272 271 272 272 273 273 272 271 271
263 263 263 263 263 263 262 262 261 261 261 260 260 259 258 258 258 258 257 257 257 257 257 257 257 256 256 256 256 256 256 260 264 263 265 264 266 264 263 263 263 263 263 263 264 265 265 265 265 265 266 267 268 268 268 268 268 268 268 268 268 269 270 272 272 271 271 269 269 267 269 270 269 270 272 273 271 270 271 271 273 272 272 271 273
263 262 262 262 262 262 262 261 261 260 260 260 259 258 258 257 257 257 257 257 256 256 256 256 256 256 256 256 256 256 256 261 264 264 264 263 266 263 262 262 263 263 263 264 264 265 265 265 266 265 266 267 267 268 268 268 267 267 267 267 268 268 268 268 268 268 268 269 269 269 270 271 271 272 272 273 272 272 273 272 273 273 273 273 273
262 262 262 262 262 262 261 261 260 260 259 258 257 257 257 256 256 257 257 257 257 257 256 256 256 256 256 256 255 255 256 262 263 264 265 263 265 262 262 262 262 262 263 264 264 265 266 266 266 266 266 267 268 271 271 269 268 268 267 267 267 268 268 270 272 272 270 269 269 269 269 271 274 272 273 273 273 273 274 274 274 272 271 270 269
262 262 261 261 261 261 260 260 259 258 258 257 256 256 256 256 256 256 255 256 256 255 255 255 256 256 255 255 255 255 255 259 263 260 261 264 262 261 261 261 262 262 263 264 265 265 266 266 266 266 266 266 269 271 272 271 269 268 268 268 268 267 267 269 272 274 275 275 275 275 275 275 275 276 276 277 275 274 273 271 270 271 270 268 268
261 261 261 261 260 260 260 259 258 258 257 257 257 256 256 256 256 256 255 255 255 255 255 255 256 256 256 255 256 255 255 259 263 262 262 264 263 261 261 261 261 262 263 264 264 265 266 267 267 266 266 267 270 272 272 271 268 268 268 268 268 267 267 269 269 270 274 275 275 276 275 275 276 276 277 277 278 276 272 269 271 271 269 269 268
261 260 260 261 260 259 259 259 258 257 257 257 256 256 255 255 256 256 255 255 255 255 256 255 255 256 256 256 257 256 255 257 262 261 261 264 262 261 261 261 261 261 262 263 264 264 265 266 267 267 267 268 271 272 273 271 268 268 268 268 267 267 268 269 268 268 268 268 268 270 270 273 272 273 274 275 276 277 274 273 273 271 269 269 269
261 261 260 260 259 259 259 258 258 258 257 256 256 256 256 255 255 255 255 255 255 255 255 255 255 255 256 255 255 255 255 256 257 264 260 258 264 261 261 261 260 261 262 262 262 263 264 265 266 269 270 271 271 272 272 273 270 269 269 268 267 267 269 269 269 269 268 268 268 269 270 271 272 272 272 273 273 274 274 274 274 272 271 270 270
261 260 260 259 259 259 259 259 258 257 257 256 256 255 255 255 255 254 254 254 254 254 254 254 254 254 255 255 255 256 256 256 257 263 263 262 265 263 261 261 261 261 261 262 262 262 263 264 265 267 268 270 271 271 272 273 272 269 269 268 269 270 272 269 269 270 268 268 269 269 269 270 271 271 272 272 273 274 274 275 274 273 272 271 270
260 260 259 259 259 259 258 258 258 257 256 256 255 254 255 255 254 254 254 254 253 253 253 253 253 254 254 255 255 256 257 258 257 261 264 264 265 266 262 261 262 261 261 261 262 262 263 264 264 266 267 269 270 271 272 272 273 269 269 273 274 274 271 270 270 269 269 269 269 269 269 270 270 271 271 272 273 274 274 274 274 273 274 273 272
260 259 259 258 258 257 257 257 256 256 256 256 255 254 254 254 254 254 253 253 253 252 252 253 253 253 254 255 256 257 257 258 260 259 262 264 265 265 265 263 265 262 261 260 261 262 263 263 264 266 268 269 270 270 271 271 270 268 272 273 273 274 272 271 271 270 269 269 269 268 269 270 269 270 270 271 272 273 273 274 274 273 273 274 274
259 258 258 257 257 257 256 256 256 256 256 255 255 254 253 253 254 254 254 253 253 253 253 254 254 254 254 255 256 257 258 258 259 260 260 263 264 264 265 265 265 261 261 260 261 262 262 263 264 267 268 269 269 270 270 270 267 271 272 272 271 271 271 270 270 270 269 269 268 268 268 270 270 270 270 271 272 272 273 273 273 273 272 273 274
258 257 256 256 256 256 256 256 256 256 255 255 254 254 254 254 253 254 254 253 253 253 253 253 253 253 254 254 255 256 257 257 258 259 260 260 263 264 264 264 262 261 260 261 262 262 264 267 267 267 267 268 268 268 266 266 268 268 268 269 270 270 270 270 269 269 268 268 268 269 269 270 270 271 271 272 272 273 272 272 273 273 273 274 274
256 256 256 255 255 255 255 255 255 255 255 255 255 255 254 254 253 253 253 253 253 253 253 253 253 253 254 254 255 256 256 257 257 258 259 259 260 261 262 261 260 261 262 262 263 264 266 265 265 264 264 264 263 263 263 263 265 266 266 267 266 268 269 269 269 268 268 268 269 268 269 271 271 271 272 272 271 271 271 270 270 270 271 271 271
255 255 255 255 255 255 255 255 255 255 255 255 255 255 255 254 254 253 253 253 253 253 253 253 253 253 253 254 255 255 255 256 257 257 257 258 258 258 258 258 260 261 261 261 262 261 261 261 261 262 263 264 264 264 263 264 263 263 263 264 265 266 267 269 269 269 269 269 269 270 271 271 272 271 271 271 270 271 271 270 269 269 270 270 269
255 255 255 255 255 255 255 254 254 255 255 255 255 255 255 254 254 253 253 253 252 252 252 252 253 253 253 254 254 255 255 256 256 256 256 257 257 258 258 258 259 259 259 260 260 260 260 261 261 261 261 260 260 260 260 260 261 261 261 262 263 265 266 269 270 270 270 270 270 270 270 271 270 270 270 270 270 270 271 270 269 269 269 269 268
255 254 254 255 255 255 255 255 255 255 255 255 255 255 254 254 254 253 254 254 253 252 252 252 253 254 255 255 254 254 254 254 255 258 257 259 258 257 258 258 259 259 260 261 260 259 259 258 258 258 258 258 258 258 258 258 259 259 260 260 261 263 264 264 265 266 268 269 269 269 270 270 270 270 270 269 269 269 270 270 270 269 269 269 267
254 254 254 254 255 255 255 255 255 255 254 254 254 254 256 257 256 254 253 256 257 257 256 255 255 256 255 256 256 255 254 255 259 259 259 260 259 260 260 261 261 260 261 261 259 257 257 256 257 256 256 256 256 256 256 256 257 257 258 260 260 261 262 262 263 263 264 265 268 270 269 270 269 269 269 269 269 269 270 270 269 269 268 267 267
254 254 254 254 255 255 254 254 254 254 254 254 254 253 253 255 259 260 257 257 257 258 254 253 257 257 257 255 257 258 258 258 261 258 258 259 260 259 259 260 260 260 261 258 256 255 255 255 255 255 255 255 255 255 255 255 256 256 257 258 259 259 260 261 261 262 262 263 265 268 269 269 269 269 269 269 269 269 269 270 270 269 268 268 267
253 253 254 254 254 254 254 254 254 253 254 254 254 253 253 252 253 255 259 257 258 255 254 258 259 257 257 257 256 255 256 257 257 254 256 258 258 259 260 261 259 259 260 259 255 254 254 254 253 254 254 254 254 255 255 255 255 255 256 256 257 258 259 259 260 260 261 262 264 266 268 269 269 269 269 269 269 269 269 269 269 268 268 268 268
253 253 253 253 253 253 253 253 253 253 253 253 253 253 252 251 251 251 253 258 259 258 257 256 254 257 256 255 256 257 256 256 256 255 258 259 258 258 259 259 260 260 258 255 253 253 253 253 253 253 253 253 253 254 254 254 255 255 255 255 256 257 258 259 260 260 260 261 263 264 266 269 270 270 270 269 269 268 269 268 269 268 268 267 268
254 254 253 253 253 253 253 253 253 253 253 253 253 252 252 252 251 251 250 251 252 254 256 256 256 256 256 257 258 256 255 253 256 257 256 258 255 256 257 257 259 259 256 253 252 252 252 252 252 253 253 253 253 254 254 254 254 255 255 255 256 257 258 258 258 258 259 259 261 262 263 264 267 268 269 269 269 269 269 268 268 268 268 268 267
254 253 253 253 253 253 253 253 253 253 253 253 253 252 252 252 252 251 250 250 249 249 250 251 254 254 253 253 254 254 254 255 255 255 256 255 256 258 257 253 252 252 252 252 252 252 251 251 252 252 252 252 253 253 253 253 254 254 254 254 255 256 257 257 257 257 257 258 259 260 261 262 263 265 267 268 268 268 268 268 268 268 268 268 268
254 254 254 254 254 254 254 254 254 253 253 253 253 252 252 252 251 251 251 251 250 250 250 251 251 253 253 253 253 254 254 254 254 256 253 256 255 255 251 250 250 250 250 251 251 251 251 251 252 252 252 252 253 253 253 253 253 254 254 254 254 255 255 256 256 256 256 257 258 259 260 260 261 262 264 266 268 269 269 268 268 269 268 268 268
254 254 254 254 254 254 254 253 253 253 253 253 252 252 252 252 251 251 251 250 250 250 250 250 250 250 252 252 252 253 253 253 256 256 255 257 257 253 250 250 250 250 250 250 250 250 250 251 251 251 252 252 252 252 253 253 253 253 254 254 254 254 255 255 256 255 255 256 257 257 258 259 260 261 262 263 265 268 269 269 269 269 269 268 269
254 254 254 254 254 253 253 253 253 253 252 252 252 252 252 251 251 251 250 250 250 250 249 249 250 249 249 249 252 251 250 252 252 253 253 252 251 250 250 250 250 249 250 250 250 250 250 250 251 251 251 252 252 252 252 252 253 253 253 253 254 254 256 255 255 254 255 255 255 256 257 258 259 260 261 262 263 264 268 269 269 268 268 268 268
254 254 254 253 253 253 253 253 252 252 252 252 252 252 251 251 250 250 250 250 249 249 249 249 249 249 249 250 249 250 250 248 248 248 249 249 249 249 249 249 249 249 249 249 249 249 249 250 250 251 251 251 252 252 252 252 252 252 253 253 253 253 253 254 254 254 254 253 254 255 256 257 258 259 260 261 261 262 263 266 269 269 268 268 268
254 254 254 253 253 253 253 252 252 252 252 252 251 251 251 250 250 250 250 249 249 249 249 249 248 249 250 249 249 249 248 248 248 248 248 248 248 248 248 248 249 249 248 249 249 249 249 249 250 250 250 251 251 251 252 252 252 252 252 252 252 252 253 253 253 253 252 253 253 254 255 255 257 258 259 260 260 261 262 263 264 266 269 269 269
254 254 253 253 253 253 253 252 252 252 252 252 252 251 251 250 250 250 250 249 249 249 249 249 249 249 250 250 251 251 249 248 248 248 248 248 248 248 248 248 248 248 249 249 249 249 249 249 250 250 250 251 251 251 251 251 251 251 251 252 252 252 252 252 253 252 252 252 253 253 254 254 256 257 258 259 260 261 262 262 264 265 266 269 270
253 253 253 253 253 253 252 252 252 252 252 251 251 251 251 250 250 250 249 249 249 249 248 248 249 249 250 251 251 251 249 248 248 247 248 248 248 248 248 248 249 248 249 249 248 248 249 249 249 250 250 250 250 250 251 250 251 251 251 251 251 251 251 252 252 252 252 252 252 252 253 254 255 256 258 259 259 260 261 261 262 264 264 266 268
253 253 253 253 253 252 252 252 252 252 251 251 251 251 251 250 250 249 249 249 249 249 248 248 248 249 249 250 249 249 248 248 247 247 247 247 248 248 248 248 248 249 249 249 249 249 249 249 249 250 250 250 250 250 250 250 250 250 251 251 251 251 251 251 252 252 252 251 251 252 253 253 254 255 256 258 258 259 260 261 261 262 264 265 266
253 253 253 253 253 253 252 252 252 252 251 251 251 250 250 250 249 249 249 249 249 249 248 248 248 248 248 249 249 248 248 248 247 247 247 247 247 247 248 248 248 248 248 248 249 249 249 249 249 249 250 250 251 251 251 251 251 250 250 250 251 251 251 251 251 251 251 251 251 251 252 253 254 254 256 256 257 258 259 260 260 260 262 263 264
253 253 252 252 252 252 252 252 252 251 251 251 250 250 250 250 249 249 249 249 249 249 249 248 248 248 248 248 248 248 247 247 247 247 247 247 247 247 248 248 248 248 248 248 248 249 248 248 248 249 249 250 250 250 250 251 251 251 251 251 250 251 251 251 251 252 252 251 251 251 251 252 252 254 254 255 256 257 258 258 259 260 261 261 262
253 252 252 252 252 252 251 251 251 251 250 250 250 250 250 250 250 249 249 249 249 248 248 248 248 248 248 248 248 248 248 247 247 247 247 247 247 248 248 248 248 247 247 248 248 248 248 248 248 248 248 249 249 250 250 250 251 251 251 251 251 251 252 252 252 252 251 251 251 251 251 252 252 253 254 255 255 257 257 258 259 259 259 260 261
253 252 252 252 252 251 251 251 251 250 250 250 250 249 249 249 249 249 249 249 248 248 248 248 248 248 248 248 248 247 247 247 247 247 247 247 247 247 247 247 247 247 247 247 247 247 247 248 248 248 248 249 249 249 250 250 250 251 251 252 252 252 251 251 251 251 251 252 251 251 251 251 251 252 253 254 255 255 256 257 258 258 259 259 260
253 252 252 252 252 251 251 251 250 250 250 250 249 249 249 249 249 249 249 248 248 248 248 248 248 248 248 248 248 248 248 247 247 247 247 247 247 247 247 247 247 247 247 247 247 247 247 247 247 247 248 248 249 249 249 250 250 250 251 251 252 251 251 251 251 251 251 251 251 251 251 251 251 252 253 253 254 254 255 256 257 258 258 259 260
252 252 252 252 251 251 250 250 250 250 249 249 249 249 249 249 249 249 249 248 248 248 248 248 248 248 248 248 248 248 248 247 247 247 247 247 247 247 247 247 247 247 247 246 246 246 247 247 247 247 247 248 248 249 249 249 249 250 250 251 251 251 251 251 251 251 251 251 251 251 251 251 251 251 252 253 254 254 255 255 256 256 257 258 259
252 252 252 251 251 251 251 250 250 250 250 249 249 249 249 249 249 248 248 248 248 248 248 248 248 248 248 248 247 247 247 247 247 247 247 247 247 247 247 247 247 246 246 246 246 246 246 246 246 247 247 248 248 248 249 249 249 250 250 250 250 251 251 251 251 251 251 251 251 251 251 251 251 251 252 253 254 254 255 255 255 256 256 257 257
252 252 251 251 251 250 250 250 250 250 249 249 249 249 248 248 248 249 249 248 248 248 248 248 248 248 248 248 248 248 247 247 247 247 247 247 247 247 247 247 246 246 246 246 246 246 246 246 246 247 247 247 248 248 248 249 249 249 249 250 250 250 250 250 250 251 251 251 251 251 251 251 250 250 251 252 253 254 254 254 255 255 256 257 257
Wind_Speed
8 8 9 9 10 10 10 10 11 10 9 9 9 10 10 9 9 9 10 10 10 10 10 11 11 11 11 11 11 11 12 12 11 11 11 11 11 11 12 12 12 11 11 12 11 11 11 11 11 10 11 10 9 9 9 10 10 10 10 11 12 12 13 14 16 18 15 12 15 15 13 15 13 11 12 10 11 11 11 10 9 8 8 8 7
8 9 9 9 10 10 11 10 10 10 10 9 10 10 9 9 10 10 10 10 10 11 11 10 10 11 12 12 12 12 12 12 12 10 11 12 12 10 11 12 13 12 12 12 11 9 10 10 11 11 10 11 11 10 10 10 10 11 11 10 11 12 12 13 16 16 18 13 15 16 14 13 15 12 11 12 11 10 11 10 9 9 8 8 8
9 8 9 10 10 10 10 10 10 11 11 10 10 10 10 10 10 10 10 10 10 10 11 11 12 12 12 12 12 12 12 12 11 11 11 12 13 12 12 13 13 13 13 13 12 11 11 12 12 11 9 11 11 10 10 11 10 11 13 11 12 13 13 14 13 15 17 14 14 13 14 12 15 13 11 11 11 11 11 11 9 8 7 9 8
8 9 10 10 11 11 10 10 11 11 11 10 10 10 10 10 10 10 11 10 11 11 11 12 12 12 13 12 12 12 12 12 12 12 13 13 13 13 13 13 13 13 12 12 12 12 12 12 11 11 11 11 11 10 10 10 10 11 11 11 12 14 14 14 15 14 13 14 13 13 15 14 14 15 12 11 11 10 10 10 10 9 8 8 8
9 9 10 11 11 10 11 11 11 11 11 10 11 11 10 10 10 11 11 11 11 11 11 11 12 12 11 12 13 13 13 13 13 13 13 13 14 14 14 13 13 13 13 14 13 13 13 13 13 12 12 12 12 11 10 12 11 11 12 11 12 12 12 12 14 14 15 17 16 15 14 14 14 14 13 13 11 10 10 11 11 10 9 9 9
9 10 10 11 11 12 11 11 11 11 11 11 11 10 10 10 11 10 11 12 12 11 12 11 11 12 13 14 14 13 13 13 13 13 14 13 13 13 13 14 15 15 14 13 13 13 13 13 13 13 13 13 13 12 12 13 13 13 13 13 12 12 13 13 14 15 16 17 16 16 15 15 15 14 14 13 13 13 13 12 10 10 10 10 9
10 10 11 11 11 11 11 11 11 11 11 11 10 10 10 11 11 11 11 11 12 12 12 13 12 12 13 13 13 14 14 13 13 13 14 14 13 14 15 14 14 13 13 13 13 13 14 14 14 14 14 14 14 14 14 14 13 14 14 14 14 14 14 14 14 15 14 13 12 13 14 15 15 15 13 13 14 14 13 13 12 9 8 10 10
11 11 11 11 11 12 11 11 11 11 10 10 10 10 10 11 11 11 11 11 12 13 14 13 13 12 13 13 13 12 13 14 14 14 13 13 13 13 14 14 14 14 14 15 16 16 16 16 16 15 15 14 14 14 14 13 12 13 13 13 13 14 14 13 14 14 15 16 15 14 14 13 14 14 13 13 13 13 13 12 14 12 11 9 10
11 11 11 11 11 11 11 10 10 10 11 11 11 11 11 11 11 11 11 11 11 12 13 14 15 15 13 13 14 13 13 12 10 11 11 13 13 14 15 15 16 15 15 15 15 16 15 15 15 15 17 22 26 23 19 17 12 13 14 12 13 14 14 13 13 14 14 14 15 14 15 15 13 13 13 13 13 14 12 11 12 13 12 10 9
10 11 12 12 11 11 11 11 11 11 11 11 11 11 11 11 11 11 12 11 11 12 12 13 14 14 13 14 14 13 12 11 15 23 22 16 16 13 13 13 14 14 14 14 14 15 16 15 16 25 27 28 28 29 29 29 29 21 14 12 13 14 14 12 13 14 14 14 14 14 15 16 15 16 15 15 14 14 15 13 13 11 10 10 10
11 11 12 11 11 11 11 11 10 11 11 11 11 11 13 12 12 12 12 11 11 12 13 13 12 12 14 13 13 12 12 12 21 24 25 26 17 16 16 16 17 17 16 17 17 17 16 16 14 17 21 22 22 28 28 28 27 29 31 30 24 18 14 15 14 13 13 14 14 15 16 16 16 15 16 15 15 15 14 12 11 10 10 9 10
12 12 11 12 11 12 11 11 11 11 10 11 12 12 13 13 12 11 12 13 13 12 13 13 13 12 12 12 13 13 13 19 24 25 27 22 19 20 16 15 15 15 15 16 15 15 15 14 14 13 13 15 15 15 21 27 30 31 32 31 30 32 31 22 16 15 15 15 15 15 14 14 13 12 12 12 12 12 12 12 12 11 11 11 9
13 13 12 12 12 11 11 11 11 13 12 12 12 12 12 13 13 13 13 12 12 13 13 13 12 12 12 13 14 14 13 20 23 26 26 23 31 26 15 15 15 15 15 15 15 15 15 14 14 13 13 23 21 17 16 17 23 29 29 30 31 32 31 34 33 23 17 17 17 17 16 15 16 14 13 12 11 12 12 13 11 9 9 10 10
12 12 12 12 11 11 11 11 11 12 13 13 12 13 13 12 12 11 12 13 12 12 12 14 13 12 12 12 14 14 14 19 24 26 26 22 28 25 15 17 15 15 15 15 14 15 15 14 14 14 14 14 14 15 15 15 15 16 17 16 16 21 28 32 33 35 29 21 19 20 19 17 16 14 14 13 14 14 14 14 13 12 10 10 8
13 11 12 12 11 12 12 13 13 13 14 13 12 13 12 12 13 12 11 11 12 12 12 12 12 11 12 12 12 14 13 22 24 26 25 24 29 23 14 14 14 13 14 14 15 15 15 15 16 16 15 14 14 17 16 16 16 16 16 17 17 16 15 16 17 17 17 17 19 20 21 20 20 20 17 14 15 15 15 14 13 12 9 7 7
13 13 13 12 11 11 13 13 13 13 14 13 12 12 12 12 12 12 12 11 11 11 12 11 12 13 13 13 13 15 14 22 25 27 27 24 29 17 14 14 14 14 15 14 14 14 14 15 15 16 16 15 20 30 26 20 18 18 17 16 15 16 17 19 25 24 21 18 17 18 18 21 25 20 19 18 16 15 15 13 12 12 10 8 8
13 13 13 12 11 11 11 13 13 12 11 12 12 12 12 12 12 11 11 11 12 11 12 12 11 12 13 13 13 14 15 20 23 21 23 29 21 14 14 13 13 14 15 14 14 14 13 14 14 14 16 16 22 29 30 28 19 18 18 18 15 13 14 17 26 32 32 33 34 35 36 35 34 36 35 37 24 18 14 14 15 13 12 10 10
13 14 13 12 11 10 12 13 12 12 12 12 12 12 12 11 12 11 11 12 12 12 11 12 12 11 13 14 13 14 15 19 25 22 24 28 26 17 13 12 13 14 14 14 13 13 14 24 22 17 17 16 25 30 30 24 17 16 18 20 22 15 14 15 12 16 29 32 33 33 33 34 35 36 37 36 34 28 18 18 15 13 13 14 11
13 12 12 13 13 12 11 11 12 12 12 12 12 13 12 12 12 11 11 11 12 11 11 11 12 12 12 14 18 18 16 18 24 22 25 26 23 14 13 12 13 13 13 13 13 13 13 16 24 23 20 20 28 28 29 24 18 17 17 20 18 18 16 15 14 15 14 15 17 19 19 22 19 17 16 29 34 29 18 18 14 15 14 13 11
13 12 12 12 11 11 11 11 11 11 12 13 12 12 12 12 12 11 11 11 11 11 12 12 13 13 13 13 14 13 14 14 17 26 23 23 29 16 11 12 12 13 13 13 13 13 14 14 18 22 24 26 27 28 28 30 23 18 17 17 15 18 16 14 15 14 15 16 16 15 15 13 13 13 14 14 16 21 21 18 16 15 13 11 10
12 11 12 12 12 12 11 11 12 12 12 12 12 12 11 12 12 12 12 11 11 12 13 12 13 14 13 13 12 13 12 14 15 25 24 24 22 22 12 13 12 12 13 14 14 14 13 12 11 17 23 25 26 29 31 32 31 21 16 15 15 16 18 13 17 23 16 15 15 15 13 12 12 12 12 12 12 11 14 17 14 14 13 11 10
11 12 13 13 13 12 12 12 11 11 11 11 12 12 12 12 12 12 11 11 12 13 13 12 12 13 12 12 12 12 14 19 15 19 23 26 26 29 17 13 14 13 14 13 13 12 12 12 12 16 23 26 28 30 33 32 32 20 17 26 31 28 18 14 11 11 12 12 13 13 12 12 11 10 10 11 10 10 11 12 13 15 14 12 11
12 13 13 13 13 12 12 13 12 11 11 12 12 13 12 12 12 12 12 12 13 14 14 12 11 11 11 10 10 11 11 12 18 15 20 24 26 26 28 21 23 15 13 14 13 13 12 13 14 20 24 28 30 32 31 32 26 18 30 32 32 29 19 10 12 11 12 11 12 12 11 11 10 10 9 8 8 8 7 7 11 13 11 10 9
12 12 13 13 12 12 12 12 12 11 12 11 12 12 12 12 12 11 11 10 11 12 11 11 11 11 12 11 10 10 10 10 14 19 18 22 23 26 26 26 26 17 16 13 13 13 13 12 14 24 28 30 31 30 28 27 20 27 29 31 30 26 13 9 10 10 10 12 13 12 10 12 9 8 8 8 7 7 8 6 6 10 11 8 8
12 13 13 13 12 12 12 12 12 12 12 12 12 12 12 11 11 10 9 10 10 11 11 10 10 10 11 11 11 10 10 11 11 15 20 20 22 23 23 25 26 27 18 14 15 13 18 26 26 28 29 30 30 27 22 22 25 25 27 27 25 13 11 8 7 8 11 11 12 10 10 11 9 8 8 7 7 7 7 7 7 8 10 9 9
13 13 13 12 13 13 13 13 13 13 13 11 11 11 11 11 10 10 9 10 10 11 11 10 10 10 11 11 11 11 11 12 12 12 12 14 15 18 21 23 24 26 24 18 22 25 24 23 26 27 24 21 16 13 13 14 21 23 22 20 12 12 11 11 8 9 9 10 10 10 11 8 8 8 9 7 7 8 7 7 6 6 6 7 7
14 13 12 12 12 11 12 11 11 11 11 11 11 11 10 11 11 11 10 10 10 10 10 10 10 10 11 11 11 12 12 12 11 11 11 10 10 11 13 14 20 21 15 13 14 14 16 16 16 22 21 24 21 18 17 16 13 12 11 10 11 11 12 9 8 7 8 8 9 8 7 7 7 8 8 8 8 8 6 7 7 7 7 7 8
12 12 13 11 11 11 11 12 13 11 10 10 10 10 11 11 11 11 10 10 10 10 10 10 10 10 11 11 12 12 12 11 11 11 11 11 11 13 13 13 13 12 12 12 13 13 13 16 17 12 11 10 10 8 8 8 10 10 10 10 11 12 14 16 13 7 7 7 7 8 7 7 7 8 7 7 7 7 8 8 8 8 8 8 9
12 13 12 11 11 11 11 11 10 10 11 11 11 11 10 10 11 12 12 11 11 11 10 11 12 11 11 12 13 13 11 11 10 14 16 20 19 16 13 12 12 12 14 21 16 11 10 10 10 10 9 9 9 9 8 9 9 9 11 10 10 10 10 9 8 9 9 7 8 8 7 8 7 6 6 8 7 7 8 8 8 7 7 8 9
12 11 10 10 10 11 10 10 11 11 11 11 12 12 14 18 16 13 12 15 21 24 20 15 14 12 13 13 12 12 12 12 19 22 20 26 24 25 22 23 22 17 20 22 13 10 9 8 8 8 8 7 9 8 9 9 10 10 10 12 11 10 10 9 9 9 9 10 9 7 8 9 6 6 8 8 8 8 9 10 8 8 8 8 9
10 10 9 10 10 11 12 12 11 10 11 11 11 12 12 11 17 21 21 21 21 19 18 19 18 18 15 12 12 17 19 21 20 21 19 21 24 24 23 23 22 20 19 13 9 7 8 7 7 7 8 8 8 8 9 9 9 10 10 10 10 10 11 9 10 10 10 9 9 9 8 8 7 7 8 8 8 8 8 9 8 8 9 9 9
10 10 10 11 11 11 11 11 11 11 11 10 11 11 11 12 12 14 19 20 19 16 16 20 19 15 17 16 14 10 14 17 19 17 19 23 21 22 23 24 22 20 18 14 7 6 6 6 7 7 7 8 8 9 9 9 9 9 10 10 10 10 10 10 12 11 10 9 9 10 8 7 7 9 8 8 9 8 8 9 9 8 8 9 9
12 12 11 11 11 11 11 11 11 10 11 11 11 10 11 11 12 12 11 15 20 21 19 15 14 19 16 16 17 18 17 17 17 16 21 22 23 23 22 21 19 17 14 7 5 6 6 6 7 7 7 8 8 8 8 8 9 9 9 9 10 10 10 11 12 10 10 10 9 8 9 7 7 7 7 8 8 9 8 9 9 8 9 9 9
13 12 11 11 12 11 11 11 10 10 10 10 10 10 11 11 11 12 13 12 12 13 14 16 15 15 16 18 19 18 18 16 17 22 23 19 15 16 18 13 14 13 9 5 5 6 6 7 7 7 7 8 8 8 8 8 9 9 9 9 9 10 10 10 9 10 10 10 9 9 8 8 8 5 7 7 7 8 8 9 9 9 9 8 8
13 13 15 13 11 11 11 10 10 10 10 10 10 11 11 11 11 11 11 11 11 12 12 11 10 12 11 13 16 19 17 18 20 21 20 16 18 17 16 7 6 5 5 4 5 6 7 7 7 7 7 8 8 8 9 9 9 9 9 9 9 9 9 9 9 9 10 10 9 8 8 8 7 7 7 5 7 7 8 8 8 8 8 8 8
12 11 11 11 11 10 10 10 10 10 10 10 10 11 11 11 11 11 11 11 11 12 12 11 10 11 16 16 17 17 17 18 19 19 17 17 12 14 7 6 5 5 5 5 5 6 6 7 7 8 8 8 8 8 8 9 9 9 9 9 9 9 9 9 10 10 10 9 9 10 9 7 7 8 7 8 7 8 7 8 7 8 9 8 8
11 11 10 10 10 10 10 11 11 11 11 12 11 11 11 10 10 10 10 10 11 10 11 11 11 10 10 8 10 14 17 17 19 19 16 14 15 8 4 5 6 6 6 6 6 6 7 6 7 7 8 8 8 8 8 8 9 9 9 9 9 9 8 9 9 10 10 9 9 9 9 8 8 7 7 6 7 6 7 8 8 8 9 9 10
13 12 11 10 11 11 11 11 11 13 12 11 10 10 10 10 10 10 10 11 11 11 11 11 10 10 10 9 10 8 11 15 16 11 9 8 7 5 5 5 6 6 6 6 6 6 7 7 6 7 8 8 8 8 8 8 8 9 9 9 9 9 12 10 10 9 9 8 9 9 9 9 8 8 7 7 6 7 6 7 7 7 8 10 9
10 13 14 15 13 12 11 11 11 10 10 10 10 10 10 10 10 10 10 10 10 10 10 10 10 10 9 9 8 9 11 8 7 7 7 6 6 5 5 6 6 6 6 6 6 6 6 7 7 7 7 7 8 8 8 8 8 9 9 9 9 8 9 8 8 8 8 8 9 9 9 8 8 8 8 7 7 6 7 6 5 7 7 9 10
11 10 10 12 11 11 11 11 11 11 10 10 10 10 10 10 10 10 10 10 10 10 9 9 10 9 9 8 8 8 9 9 8 8 7 7 6 6 5 6 6 6 6 6 6 6 7 7 7 7 7 8 7 8 8 8 8 8 8 8 8 9 9 8 8 8 8 9 8 9 9 9 9 8 7 6 6 7 7 6 6 4 6 8 9
10 10 11 11 12 11 11 11 10 10 10 9 10 10 10 10 10 10 10 10 10 10 10 10 10 9 9 10 14 14 10 10 9 8 8 7 7 6 6 6 6 6 6 6 6 6 7 7 7 7 7 7 7 7 8 8 8 8 8 8 8 8 8 8 8 8 9 8 8 8 9 9 9 8 8 7 8 7 6 6 6 5 5 3 5
11 11 11 10 10 10 10 10 10 11 11 11 10 10 9 9 10 10 10 11 10 10 10 10 10 9 11 16 15 15 11 9 8 8 7 7 7 7 6 6 6 6 6 6 6 7 7 7 7 7 7 7 7 7 7 7 8 8 8 8 8 8 8 8 8 8 9 8 8 9 9 9 9 9 8 8 7 6 6 6 6 6 5 5 1
11 11 11 11 10 10 10 10 10 10 10 10 10 10 10 10 10 10 10 10 10 10 10 10 9 9 9 11 11 13 8 8 8 8 8 7 7 7 7 6 6 6 6 6 6 6 7 7 7 7 7 7 7 7 7 7 7 8 7 8 8 8 8 8 8 8 8 8 8 9 10 9 9 8 8 7 7 6 6 6 6 5 4 4 3
11 11 11 11 10 10 10 10 10 10 10 11 11 11 11 10 10 10 10 10 10 10 10 9 9 9 8 8 8 7 7 7 7 7 7 8 7 7 7 6 6 6 6 6 6 6 6 7 7 7 7 7 7 7 7 7 7 7 7 8 8 8 8 8 8 8 9 9 9 9 9 9 9 8 8 8 8 7 6 5 5 5 5 4 3
10 10 10 10 10 10 11 10 10 10 11 11 11 10 9 9 10 9 9 10 10 9 9 9 9 9 8 8 7 7 7 7 8 8 7 7 7 7 7 6 6 6 6 6 6 6 6 7 7 7 7 6 6 6 6 6 6 6 6 7 7 7 7 8 8 8 8 9 9 9 9 8 8 8 8 8 8 7 5 5 4 5 4 4 4
11 11 11 11 10 10 10 10 10 10 10 10 10 10 9 9 9 9 9 9 10 10 9 9 9 9 8 8 8 7 7 7 7 7 8 7 7 7 6 6 6 6 6 6 6 6 6 7 7 7 7 6 6 6 6 6 6 6 6 6 6 6 7 8 8 8 8 8 8 8 8 8 8 8 9 8 7 7 6 5 4 4 4 3 3
11 11 11 10 10 11 10 10 10 10 10 10 10 11 10 10 10 10 10 10 10 10 10 9 9 8 8 8 8 8 7 7 7 7 7 7 7 7 7 7 6 6 6 6 5 6 6 7 6 7 7 7 7 7 6 6 6 6 6 6 5 6 7 8 8 8 8 8 8 8 8 8 8 8 9 8 7 7 7 5 4 3 3 3 2
10 10 10 10 10 10 10 10 11 11 10 10 10 10 10 10 10 10 9 9 9 9 9 9 9 8 8 8 8 8 7 7 7 7 7 7 7 7 6 6 6 6 6 6 6 5 6 6 6 6 7 7 7 6 6 6 6 6 6 6 6 7 11 12 8 8 7 8 8 8 8 7 7 7 8 8 7 6 6 6 5 4 3 2 2
10 10 10 10 10 10 10 10 10 10 10 10 10 10 10 10 10 10 10 9 9 9 9 9 9 8 8 8 8 7 7 7 7 7 7 7 7 6 6 6 6 5 6 6 6 6 6 6 6 6 6 7 6 6 6 6 6 6 6 5 8 15 15 14 10 8 10 8 7 7 7 7 7 8 8 7 7 6 5 5 5 5 3 2 2
10 10 10 10 10 10 10 10 10 10 10 10 10 10 10 10 10 9 9 9 9 9 9 8 9 8 8 8 8 8 7 7 7 7 7 7 7 6 6 6 5 5 5 6 6 6 6 5 6 6 6 6 6 6 6 6 6 6 5 7 13 15 14 15 13 13 10 7 7 7 7 7 7 7 7 7 7 6 5 5 5 5 3 3 2
9 10 10 10 10 10 10 10 10 10 10 10 10 10 10 10 10 10 10 10 9 9 9 9 8 8 8 8 8 8 7 7 7 7 7 7 7 7 6 6 6 5 5 5 6 6 5 5 5 6 6 6 6 6 6 5 5 5 9 14 14 13 13 14 10 12 14 11 7 6 6 6 7 7 7 6 6 6 6 6 5 4 3 2 2
Wind_Direction
312 312 316 313 312 311 311 310 305 298 295 298 303 303 302 303 303 304 306 304 300 303 301 300 300 300 300 300 298 296 297 297 297 296 292 289 289 288 289 288 285 283 283 284 282 281 280 279 280 280 284 284 282 282 282 282 282 280 278 277 271 265 262 262 265 270 271 265 270 270 270 273 270 264 270 268 264 261 258 248 240 241 240 246 249
310 312 311 310 309 309 310 308 303 299 295 295 297 300 302 304 305 306 303 300 304 300 299 299 300 300 299 296 294 294 293 292 291 289 287 288 287 288 287 286 284 282 282 281 282 283 285 286 284 285 284 282 280 281 279 277 275 274 272 271 271 271 267 263 264 267 272 269 265 269 267 267 270 266 267 271 270 266 258 254 246 241 242 240 240
306 306 308 308 308 309 308 306 305 302 297 295 295 298 301 303 305 303 302 302 301 300 299 299 298 297 296 294 292 291 290 290 290 289 287 286 285 284 284 284 284 282 281 280 281 281 282 282 282 282 280 277 276 275 275 274 272 270 270 271 272 271 271 271 272 268 270 269 266 269 266 265 268 272 267 265 266 264 264 259 255 250 244 243 244
305 307 307 307 307 306 305 306 304 301 299 298 296 297 301 302 302 302 301 300 300 299 299 297 297 296 294 293 292 292 292 290 289 289 287 285 283 283 283 282 282 281 279 280 281 281 278 276 274 275 275 273 273 272 271 270 271 269 269 268 267 267 267 265 266 273 277 276 267 265 270 271 267 267 268 264 266 269 269 268 259 251 245 245 242
307 309 309 308 308 307 305 304 304 303 301 300 301 301 301 302 303 301 302 301 301 301 299 298 297 297 295 295 295 293 292 292 290 287 286 283 283 283 282 280 278 278 280 281 279 275 273 270 270 269 267 267 267 266 264 263 263 266 267 266 265 266 266 266 266 265 267 268 271 266 269 268 267 270 269 271 269 265 259 254 255 252 243 240 244
308 308 309 310 308 306 306 305 304 305 305 303 302 303 305 304 303 303 303 302 300 298 297 298 296 295 295 295 294 292 292 291 289 286 284 283 282 281 281 282 282 280 278 275 274 272 270 268 268 266 264 262 262 260 260 260 260 259 261 262 264 266 267 265 263 263 263 264 264 266 260 262 265 263 263 262 263 264 264 263 251 239 239 239 239
306 306 308 307 305 305 306 306 306 306 304 302 303 302 302 303 303 302 303 301 300 301 300 297 296 295 295 295 294 293 291 289 287 285 284 281 282 283 282 279 276 275 275 274 270 268 267 266 263 260 258 256 256 256 256 257 258 257 257 259 257 257 258 259 261 262 264 273 275 271 268 259 258 262 258 255 258 259 263 261 256 241 232 234 238
304 303 302 301 302 304 306 307 307 305 303 302 300 302 304 304 304 303 302 300 299 301 302 298 297 296 294 295 291 289 288 289 288 285 281 279 281 279 276 274 274 272 269 266 265 263 261 260 257 255 251 250 250 252 250 254 251 254 254 254 255 255 255 256 256 256 257 259 260 260 262 265 256 253 256 255 256 255 250 255 256 251 240 228 230
300 298 298 299 300 302 303 304 303 300 300 301 302 303 304 303 301 300 298 297 298 297 298 297 297 295 290 289 290 290 289 285 281 280 279 278 273 269 267 265 263 261 259 258 258 258 256 254 252 250 249 248 248 247 246 243 243 247 246 246 248 254 255 254 254 255 255 257 257 256 255 253 252 252 251 248 247 252 255 249 249 248 247 241 222
299 300 299 297 298 299 299 298 297 299 298 299 301 302 302 302 300 300 298 295 294 295 294 294 289 285 284 287 288 286 282 276 274 274 273 272 270 264 256 253 250 248 249 249 250 249 246 245 247 249 250 249 250 251 252 250 247 247 249 249 249 248 246 246 249 250 253 254 255 256 255 251 248 249 253 253 253 254 252 247 250 246 241 244 247
302 300 296 296 296 296 296 296 297 297 300 300 301 302 302 302 303 298 295 293 292 294 292 288 285 284 282 281 281 280 275 272 273 278 280 281 278 277 278 279 277 275 274 275 275 275 274 269 267 265 267 265 258 256 256 257 258 256 257 255 254 251 250 253 251 252 255 257 257 255 253 254 250 248 250 251 247 247 250 249 246 243 235 233 237
299 296 295 297 296 296 297 297 298 299 302 301 300 301 303 302 298 294 295 296 293 291 288 284 281 278 277 277 277 276 275 275 279 283 286 286 284 282 280 279 281 279 278 277 275 273 272 269 265 263 258 256 257 259 259 261 263 263 263 263 262 259 255 251 249 248 242 249 250 248 251 252 252 244 247 248 249 250 249 249 243 237 236 233 234
303 300 297 298 298 297 296 297 299 300 301 302 301 301 298 296 297 295 292 293 294 288 283 282 280 279 277 277 276 275 274 278 282 285 286 285 286 288 288 287 286 282 280 277 274 272 268 266 264 259 257 262 263 261 260 260 263 265 265 264 263 262 261 259 256 255 251 248 248 249 244 247 248 244 241 246 252 255 252 246 236 232 233 234 235
299 298 294 294 294 295 296 299 298 298 300 302 302 300 295 288 292 293 293 291 284 282 282 280 280 277 275 275 277 277 274 278 283 286 288 288 290 292 293 292 288 283 279 275 273 271 267 265 266 264 262 259 256 256 255 256 255 254 255 254 254 257 259 260 262 261 260 257 253 251 247 247 249 246 238 237 242 247 247 249 248 238 232 237 242
299 294 294 296 296 296 298 299 298 299 301 302 300 295 287 286 287 287 288 287 286 285 284 285 282 279 278 276 277 279 275 281 286 289 290 290 293 296 299 295 289 284 281 277 275 273 271 268 266 267 268 265 265 263 262 259 256 253 252 251 249 247 246 249 248 249 251 252 254 257 256 250 249 249 248 239 236 241 245 249 246 244 242 239 237
298 298 296 296 293 294 298 298 298 299 300 297 292 286 284 284 286 287 286 283 280 280 279 278 281 281 279 277 277 278 277 283 288 289 290 291 292 298 297 292 290 286 282 280 276 275 273 271 271 270 269 267 264 267 270 266 259 256 251 245 241 241 243 241 248 249 245 240 243 246 247 247 247 247 244 243 238 238 242 245 241 239 239 238 240
295 296 297 297 294 294 295 298 296 290 289 289 287 286 286 288 286 286 283 280 281 280 278 278 277 278 278 275 274 275 279 283 286 287 289 292 293 296 298 294 289 285 282 281 279 276 275 271 271 271 270 268 269 271 274 275 272 270 266 258 247 231 237 240 250 255 255 252 250 246 245 243 241 244 245 242 235 232 233 237 236 232 233 236 238
293 297 295 294 293 294 296 293 286 284 285 285 286 287 287 286 284 284 281 282 281 278 279 279 276 274 275 274 272 275 280 283 287 288 290 291 292 296 299 294 289 290 291 286 284 283 280 281 279 276 273 273 273 275 278 282 283 280 279 275 266 238 234 241 246 248 251 256 258 258 256 251 248 247 245 243 240 233 227 226 224 229 232 234 234
288 287 288 291 292 291 285 281 281 282 283 284 287 288 287 285 285 283 279 278 276 278 279 278 279 278 275 275 278 279 279 281 285 288 288 289 293 292 292 294 295 294 292 289 287 285 282 280 280 280 279 277 279 283 286 290 288 288 286 284 268 246 238 242 238 240 241 244 252 259 262 262 261 258 257 252 244 234 220 225 225 225 227 224 224
289 287 288 287 285 282 281 280 280 281 284 286 285 284 284 284 281 281 282 280 281 280 279 278 278 278 279 278 276 274 275 275 278 284 287 290 293 292 293 298 299 298 297 295 293 288 284 283 283 288 292 296 297 300 300 296 294 293 290 287 269 252 242 238 231 234 241 242 247 251 252 254 250 248 245 244 248 243 233 221 218 219 218 213 208
289 287 287 286 283 281 281 280 282 282 282 282 282 280 280 280 282 280 280 279 276 277 277 278 277 276 275 272 272 272 269 273 275 284 290 296 299 302 305 303 302 300 297 296 295 294 294 293 297 295 297 298 300 299 297 296 299 300 299 297 283 260 246 231 231 235 236 239 243 247 249 247 245 243 244 240 235 233 235 228 213 212 211 205 208
288 287 286 284 284 283 282 280 280 280 280 279 278 278 277 277 276 276 276 276 277 276 275 274 275 275 275 274 269 269 270 271 279 286 292 297 301 306 309 306 303 300 304 305 303 301 297 299 297 299 299 298 295 296 300 303 306 311 303 296 290 290 264 236 228 223 231 238 239 242 242 241 237 232 237 231 225 228 231 224 209 208 207 200 197
287 285 284 283 282 280 278 278 277 277 276 274 273 275 277 277 276 274 273 272 271 272 271 269 269 271 274 278 277 276 276 281 286 288 292 297 300 305 308 310 314 320 319 312 305 298 299 297 298 299 294 294 299 303 305 308 313 308 302 299 300 302 301 258 235 224 228 235 240 241 233 232 232 235 230 227 216 212 219 207 196 201 202 200 193
286 284 283 281 279 278 277 276 274 272 272 273 272 274 274 272 273 274 272 271 273 275 276 277 280 282 284 285 285 285 285 287 291 294 294 294 298 304 309 313 321 329 319 307 301 298 299 297 294 296 303 307 307 306 308 310 305 302 303 307 307 302 291 278 257 241 223 234 239 236 235 234 225 226 226 221 217 197 203 203 181 191 199 203 203
285 282 280 279 277 277 276 273 272 271 271 273 273 274 273 272 274 274 274 271 269 271 275 278 279 282 285 286 290 291 290 292 294 294 296 296 299 304 309 315 322 318 310 301 299 299 298 300 305 311 311 308 307 307 307 303 302 304 306 305 306 290 284 263 251 245 241 232 232 236 238 229 215 217 216 216 206 197 197 201 194 185 190 198 201
286 283 281 277 276 276 275 274 270 267 266 265 264 266 268 271 271 276 274 272 270 270 272 275 277 280 282 286 289 294 295 294 292 295 298 298 299 303 308 313 310 306 302 300 303 304 305 309 308 306 304 301 301 299 297 300 305 309 310 315 316 308 283 261 254 248 239 239 233 234 228 218 220 209 209 199 194 203 193 194 194 199 192 199 208
286 284 279 279 279 276 272 274 280 280 277 272 268 266 268 270 271 272 270 270 271 271 272 275 277 278 282 287 291 294 295 293 293 295 299 297 298 300 305 304 302 301 302 303 305 305 304 304 300 298 297 297 298 299 298 303 312 316 320 321 318 313 313 297 261 249 249 244 239 220 216 220 221 211 204 198 203 204 187 185 188 195 193 205 215
285 284 282 280 278 278 276 272 272 277 273 270 270 273 270 269 267 265 268 271 275 274 273 273 274 278 284 289 291 293 292 292 291 293 294 295 296 301 301 300 300 301 303 304 306 309 307 301 299 300 301 304 305 304 304 310 313 318 321 322 319 317 313 315 321 282 257 247 230 224 215 211 209 214 199 182 188 186 185 185 190 195 196 199 209
283 282 282 280 278 282 281 282 282 282 283 278 270 264 266 267 266 266 262 263 260 263 267 267 270 274 281 288 293 290 290 288 291 287 287 293 297 304 307 303 302 304 306 309 313 312 304 300 301 304 308 311 314 311 314 319 317 319 321 324 325 324 325 330 327 332 322 282 241 226 219 209 214 198 186 187 189 189 187 192 196 199 199 205 217
285 282 279 280 283 285 287 288 288 286 282 282 281 276 262 263 264 261 261 257 258 260 259 260 267 279 287 286 283 284 287 289 292 295 297 299 307 309 308 310 312 312 311 316 319 310 305 304 305 308 311 316 314 316 321 325 325 325 327 328 327 326 332 334 338 335 328 319 295 248 229 222 200 182 189 189 188 189 189 192 194 194 202 203 214
283 281 282 284 288 292 291 288 285 284 282 281 280 281 286 276 273 278 281 282 279 276 278 280 284 286 290 291 290 287 290 295 299 301 303 308 312 315 317 318 316 317 321 327 323 311 308 306 310 312 312 314 313 317 322 323 327 326 325 326 322 327 331 336 339 331 324 310 307 290 246 221 197 183 189 194 195 191 192 193 195 197 204 208 210
281 282 284 288 290 288 285 284 283 281 280 280 281 283 285 289 286 278 282 285 283 285 287 290 293 298 300 295 293 292 296 297 300 302 307 313 315 319 322 317 318 325 329 332 316 311 310 311 312 314 317 315 316 319 321 324 325 326 326 324 325 327 330 334 332 328 320 314 308 307 280 234 208 195 188 197 198 200 194 194 197 201 203 209 215
280 281 281 282 283 282 283 282 281 280 280 281 283 283 284 286 290 295 291 289 290 291 291 293 299 300 302 301 301 301 303 306 306 312 317 314 317 320 317 318 324 327 332 332 319 312 312 313 313 315 319 317 318 319 321 322 323 325 325 323 322 324 326 324 327 327 327 321 315 307 313 276 226 208 206 199 201 204 198 196 195 197 201 207 213
281 281 283 285 285 283 281 279 279 279 278 279 280 282 282 281 284 288 294 300 299 295 291 296 298 296 296 298 301 308 312 317 320 319 313 308 313 319 323 322 322 327 337 327 321 313 315 314 315 317 318 319 319 321 322 323 324 323 323 324 319 322 323 326 329 333 331 328 326 327 326 330 326 275 222 209 210 203 201 198 195 196 201 204 209
284 280 271 269 274 277 278 278 279 281 282 280 281 280 281 282 283 284 285 289 293 297 302 303 299 297 296 297 297 299 305 308 311 308 303 308 323 331 332 329 328 332 334 325 317 317 316 316 315 317 319 320 322 323 322 324 322 324 325 324 325 324 328 331 332 333 331 327 330 333 333 329 328 335 318 254 211 205 207 200 196 195 198 203 205
285 283 284 280 276 277 278 280 282 282 282 282 280 280 281 282 281 280 282 281 283 288 291 293 297 300 297 293 294 299 304 310 306 302 307 317 335 346 336 323 320 319 320 317 317 315 316 312 314 315 319 319 321 322 323 322 322 323 323 326 326 327 330 333 334 335 331 328 328 332 334 333 339 333 327 315 252 208 205 201 198 197 198 201 201
286 284 282 281 282 282 282 281 279 277 278 279 280 279 277 276 277 279 279 280 282 282 285 292 299 298 298 292 298 304 307 309 310 313 319 330 339 341 313 315 310 311 306 314 316 316 313 312 314 314 317 318 318 321 322 320 321 321 324 327 323 327 332 335 337 336 331 330 331 333 333 334 334 333 328 313 316 272 215 201 198 197 196 198 203
280 278 277 281 284 283 282 280 279 279 278 275 274 276 277 278 278 279 280 281 280 283 287 289 291 293 297 301 309 309 310 309 310 311 319 325 330 324 316 310 308 303 303 307 312 311 309 309 313 313 316 314 316 321 320 321 322 324 324 323 326 324 332 334 335 337 333 332 333 332 335 334 335 332 329 332 330 334 282 204 192 200 196 199 206
288 281 276 273 276 281 282 282 281 280 279 277 277 277 278 279 279 279 279 281 283 282 281 284 286 287 291 300 305 309 309 309 315 312 315 314 311 311 307 304 300 301 302 304 306 308 307 309 310 314 312 314 315 319 320 320 323 323 323 322 326 328 333 336 337 338 338 337 333 334 334 333 331 330 330 338 342 334 329 314 217 198 193 199 207
286 287 284 285 288 282 282 282 281 278 276 277 277 277 279 279 280 281 282 281 281 281 281 282 282 283 289 294 296 302 303 304 304 304 304 304 304 302 301 296 296 299 302 303 303 305 308 308 311 310 312 312 315 319 319 320 322 321 322 324 325 329 333 334 337 337 337 333 332 334 334 330 327 326 330 341 335 333 330 333 339 312 227 200 200
290 287 287 284 281 284 281 277 276 275 279 278 278 278 276 277 277 279 279 280 280 282 281 281 280 284 285 284 287 291 294 295 297 296 294 294 295 296 292 292 293 295 296 298 302 305 305 306 306 308 311 312 315 318 319 321 320 320 323 323 325 327 328 330 332 336 333 332 333 333 332 327 325 330 335 337 338 335 334 338 331 335 338 219 158
290 290 288 286 284 282 281 279 278 276 275 275 274 272 274 275 277 277 277 277 277 278 279 279 280 281 282 285 288 290 291 290 288 287 286 285 285 285 287 288 288 287 291 294 301 302 303 302 304 308 309 312 317 316 321 320 319 321 321 322 324 327 328 330 334 334 335 332 332 329 329 328 329 329 330 336 335 333 340 342 338 347 345 348 58
287 285 284 283 281 279 279 280 279 278 277 276 274 275 275 277 277 277 275 273 275 276 276 280 281 282 282 284 286 287 281 274 274 278 281 283 282 282 284 284 286 290 292 294 294 296 297 300 304 303 307 312 312 315 319 318 319 318 319 320 322 324 324 329 332 333 334 333 329 328 327 328 332 328 330 336 334 334 337 347 346 352 346 359 23
289 285 283 282 280 279 276 278 279 277 277 276 277 276 273 271 270 270 272 273 273 273 275 277 280 283 285 286 284 279 273 276 277 278 279 282 281 281 284 282 286 287 290 288 291 292 296 300 298 301 303 306 310 314 313 313 317 315 316 319 321 321 326 331 331 334 334 331 327 327 328 328 329 329 333 335 334 333 344 355 356 352 349 5 15
287 284 284 284 281 279 279 278 277 277 277 278 276 275 273 271 271 272 272 273 273 274 275 276 278 279 281 281 280 277 276 277 276 276 277 277 279 279 281 284 283 285 289 293 290 292 295 296 297 299 301 306 311 311 312 313 312 312 315 318 316 321 328 330 331 332 328 326 325 324 325 327 326 328 330 331 327 331 342 350 345 346 360 5 13
287 286 283 282 282 280 280 280 279 279 278 277 276 276 275 276 273 273 272 272 273 275 276 276 277 276 276 276 275 274 275 276 275 275 274 275 277 282 282 283 283 284 288 291 293 293 293 294 294 295 301 306 307 309 310 309 312 312 316 313 316 326 332 332 331 326 324 326 324 322 322 321 322 318 327 330 325 327 333 334 345 359 354 6 10
286 282 281 280 280 281 281 281 281 279 280 278 275 273 272 271 272 274 272 271 273 273 273 274 273 271 273 273 274 274 274 273 275 277 276 274 275 276 277 276 279 283 284 284 288 291 290 289 292 297 300 299 303 304 307 312 313 314 315 314 322 339 338 331 326 322 319 322 321 314 315 316 316 316 324 328 328 330 329 335 347 346 350 356 9
284 283 280 280 279 280 282 283 281 279 277 277 275 275 275 275 275 271 272 273 271 270 271 272 271 273 274 273 273 274 273 274 275 277 278 277 276 276 277 278 277 276 282 287 286 288 293 293 293 296 295 298 300 305 308 311 309 310 311 316 336 341 331 329 324 323 320 320 313 314 314 313 313 315 316 318 322 324 325 334 335 338 344 340 348
285 283 283 282 281 281 283 282 280 279 278 279 278 276 275 274 273 274 275 273 273 272 272 273 274 274 273 273 274 273 273 273 274 275 276 275 276 276 277 275 276 276 280 282 286 289 291 290 291 291 293 293 296 302 306 306 308 305 309 322 333 330 327 332 331 324 326 320 314 314 311 309 313 313 312 311 315 319 320 321 325 330 323 331 330
285 283 282 282 282 282 281 280 279 280 280 279 277 278 277 275 275 275 275 274 275 277 276 276 276 276 275 275 273 272 272 272 274 277 279 278 278 278 279 279 277 277 278 282 287 290 289 290 290 289 287 291 295 298 300 302 304 306 312 326 325 323 330 335 331 330 330 322 317 308 307 308 309 310 310 310 313 315 318 323 325 320 318 318 317
284 283 282 282 283 284 283 281 281 280 280 279 278 279 279 278 277 278 278 278 278 279 279 279 280 280 279 276 274 274 273 274 274 275 277 278 278 278 278 279 281 281 280 282 283 283 285 289 291 289 291 293 296 295 299 301 303 310 318 318 316 323 334 336 331 331 330 327 315 307 306 312 312 309 310 313 316 316 318 316 308 310 311 310 318